FW7163 Weather Reports


time (UTC)temp
F
wind
direction
speed
knots
gust
knots
rain 1hr
in
rain 24hr
in
rain mn
in
humidity
%
barometer
mb
20260507124555 31 72 0.0 3.5 0.00 0.00 0.00 71 1011.1
20260507123047 29 72 0.0 0.0 0.00 0.00 0.00 75 1010.9
20260507121552 27 72 0.0 0.0 0.00 0.00 0.00 77 1010.8
20260507120045 26 72 2.6 4.3 0.00 0.00 0.00 77 1010.7
20260507114541 27 72 0.0 1.7 0.00 0.00 0.00 82 1010.5
20260507113045 27 72 0.0 0.0 0.00 0.00 0.00 82 1010.4
20260507111539 27 72 0.0 1.7 0.00 0.00 0.00 81 1010.4
20260507110049 27 72 0.0 2.6 0.00 0.00 0.00 81 1010.5
20260507104546 26 72 0.0 0.0 0.00 0.00 0.00 80 1010.6
20260507103050 25 72 0.0 0.0 0.00 0.00 0.00 77 1010.6
20260507101533 26 72 0.0 0.0 0.00 0.00 0.00 76 1010.7
20260507100031 26 72 0.9 2.6 0.00 0.00 0.00 75 1010.8
20260507094531 27 72 0.9 2.6 0.00 0.00 0.00 73 1010.8
20260507093028 27 72 0.9 1.7 0.00 0.00 0.00 72 1010.8
20260507091535 27 72 0.9 1.7 0.00 0.00 0.00 72 1010.8
20260507090032 27 72 0.9 2.6 0.00 0.00 0.00 69 1010.8
20260507084538 27 72 0.0 0.0 0.00 0.00 0.00 67 1010.8
20260507083021 29 72 0.0 2.6 0.00 0.00 0.00 67 1010.8
20260507081520 29 73 0.0 1.7 0.00 0.00 0.00 70 1010.8
20260507080019 28 73 0.9 1.7 0.00 0.00 0.00 69 1010.8
20260507074516 28 73 1.7 3.5 0.00 0.00 0.00 65 1010.9
20260507073012 29 73 3.5 4.3 0.00 0.00 0.00 61 1010.8
20260507071512 30 72 3.5 4.3 0.00 0.00 0.00 64 1010.8
20260507070011 31 69 3.5 5.2 0.00 0.00 0.00 61 1010.9
20260507064505 31 105 1.7 2.6 0.00 0.00 0.00 62 1010.9
20260507063005 31 105 0.9 3.5 0.00 0.00 0.00 60 1010.9
20260507061601 32 105 2.6 5.2 0.00 0.00 0.00 56 1010.9
20260507054613 33 105 5.2 6.1 0.00 0.00 0.00 56 1010.9
20260507053105 34 105 4.3 6.1 0.00 0.00 0.00 53 1011.0
20260507051556 35 105 4.3 7.0 0.00 0.00 0.00 53 1011.0
20260507050051 36 105 6.1 7.8 0.00 0.00 0.00 51 1011.1
20260507044553 37 105 6.1 7.8 0.00 0.00 0.00 49 1011.1
20260507043044 37 104 6.1 7.8 0.00 0.00 0.00 49 1011.1
20260507041558 36 103 6.1 7.0 0.00 0.00 0.00 51 1011.2
20260507040044 36 103 6.1 7.0 0.00 0.00 0.00 50 1011.2
20260507034543 36 103 5.2 6.1 0.00 0.00 0.00 48 1011.2
20260507033043 39 103 6.1 7.0 0.00 0.00 0.00 44 1011.3
20260507031542 41 95 6.1 7.8 0.00 0.00 0.00 41 1011.3
20260507030041 39 90 5.2 6.1 0.00 0.00 0.00 43 1011.2
20260507024541 41 90 2.6 5.2 0.00 0.00 0.00 39 1011.1
20260507023040 43 90 5.2 7.0 0.00 0.00 0.00 37 1011.2
20260507021539 44 23 3.5 4.3 0.00 0.00 0.00 37 1011.1
20260507020045 46 21 4.3 6.1 0.00 0.00 0.00 32 1011.2
20260507014547 50 345 2.6 3.5 0.00 0.00 0.00 29 1011.2
20260507013044 51 345 3.5 7.0 0.00 0.00 0.00 27 1011.3
20260507011542 51 329 3.5 7.8 0.00 0.00 0.00 27 1011.3
20260507010043 51 327 7.0 11.3 0.00 0.00 0.00 26 1011.4
20260507004533 52 325 6.1 11.3 0.00 0.00 0.00 26 1011.5
20260507003030 52 315 7.8 11.3 0.00 0.00 0.00 26 1011.8
20260507001548 52 330 8.7 13.0 0.00 0.00 0.00 26 1011.9
20260507000032 52 306 7.0 13.0 0.00 0.00 0.00 27 1012.1
20260506234526 52 355 10.4 13.0 0.00 0.00 0.00 28 1012.2
20260506233025 52 331 6.1 16.5 0.00 0.00 0.00 28 1012.2
20260506231523 52 317 7.8 13.0 0.00 0.00 0.00 28 1012.3
20260506230022 52 328 7.8 13.9 0.00 0.00 0.00 29 1012.5
20260506224519 52 275 8.7 14.8 0.00 0.00 0.00 30 1012.6
20260506223016 52 324 11.3 15.6 0.00 0.00 0.00 30 1012.8
20260506221513 51 275 7.8 13.9 0.00 0.00 0.00 31 1013.0
20260506220011 52 340 11.3 16.5 0.00 0.00 0.00 32 1013.3
20260506214509 51 286 8.7 18.2 0.00 0.00 0.00 32 1013.6
20260506213006 51 292 10.4 17.4 0.00 0.00 0.00 33 1013.9
20260506211505 50 294 9.6 18.2 0.00 0.00 0.00 33 1014.1
20260506210004 51 329 13.0 20.0 0.00 0.00 0.00 33 1014.2
20260506204601 50 315 7.8 16.5 0.00 0.00 0.00 34 1014.3
20260506203057 50 279 11.3 20.0 0.00 0.00 0.00 33 1014.4
20260506201556 50 282 10.4 18.2 0.00 0.00 0.00 35 1014.8
20260506200054 49 313 11.3 20.9 0.00 0.00 0.00 34 1015.0
20260506194550 49 299 10.4 18.2 0.00 0.00 0.00 35 1015.0
20260506193052 48 302 9.6 19.1 0.00 0.00 0.00 37 1015.3
20260506191545 48 309 9.6 20.0 0.00 0.00 0.00 38 1015.5
20260506190043 47 296 13.9 19.1 0.00 0.00 0.00 39 1015.6
20260506184541 47 301 13.0 21.7 0.00 0.00 0.00 40 1015.7
20260506183038 46 314 11.3 20.9 0.00 0.00 0.00 41 1016.1
20260506181543 45 347 5.2 20.0 0.00 0.00 0.00 43 1016.4
20260506180032 45 300 8.7 18.2 0.00 0.00 0.00 44 1016.8
20260506174534 45 323 10.4 20.0 0.00 0.00 0.00 44 1016.8
20260506173047 44 288 7.8 16.5 0.00 0.00 0.00 45 1017.1
20260506171528 43 284 9.6 16.5 0.00 0.00 0.00 47 1017.2
20260506170026 43 327 12.2 16.5 0.00 0.00 0.00 46 1017.3
20260506164524 43 294 10.4 17.4 0.00 0.00 0.00 45 1017.5
20260506163027 42 311 7.0 14.8 0.00 0.00 0.00 47 1017.7
20260506161520 41 279 7.8 16.5 0.00 0.00 0.00 48 1017.7
20260506160014 41 335 10.4 16.5 0.00 0.00 0.00 49 1017.6
20260506154513 41 297 13.0 16.5 0.00 0.00 0.00 48 1017.8
20260506153010 41 294 13.9 21.7 0.00 0.00 0.00 50 1017.9
20260506151509 40 327 13.0 21.7 0.00 0.00 0.00 52 1017.9
20260506150013 40 313 15.6 20.0 0.00 0.00 0.00 52 1018.0
20260506144505 39 293 7.8 13.9 0.00 0.00 0.00 57 1018.1
20260506143002 39 317 10.4 13.9 0.00 0.00 0.00 58 1018.2
20260506141603 38 309 10.4 15.6 0.00 0.00 0.00 60 1018.3
20260506140056 37 298 9.6 13.0 0.00 0.00 0.00 64 1018.3
20260506134552 36 323 7.8 10.4 0.00 0.00 0.00 70 1018.3
20260506133101 35 293 7.0 9.6 0.00 0.00 0.00 74 1018.2
20260506131543 32 288 4.3 7.0 0.00 0.00 0.00 80 1018.2
20260506130040 29 310 2.6 4.3 0.00 0.00 0.00 81 1018.2